Theta_e
312 312 312 313 313 313 313 314 314 314 314 314 315 315 315 315 316 312 306 313 316 322 319 303 302 301 299 296 296 301 293 289 292 293 296 300 298 304 309 306 314 321 317 321 327
311 311 312 312 312 312 313 313 313 313 314 314 314 315 315 315 307 301 311 314 315 319 305 298 296 298 292 292 293 295 291 292 297 296 295 298 298 300 301 304 309 317 323 326 327
310 311 311 311 311 312 312 312 313 313 313 314 314 314 314 312 298 298 314 315 317 318 306 300 299 296 292 292 290 289 289 292 294 295 293 294 295 299 299 302 305 313 320 323 324
310 310 310 310 311 311 311 311 312 312 313 313 314 314 314 305 285 302 317 316 316 311 307 300 299 292 290 289 292 286 290 291 293 295 293 292 295 295 298 301 308 312 324 324 324
310 309 309 309 310 310 310 311 312 312 313 313 313 313 305 294 294 306 316 312 306 307 304 301 297 295 290 291 292 286 290 294 295 295 295 295 292 294 296 301 304 315 324 323 323
309 308 308 309 309 310 310 311 312 312 312 312 312 312 298 288 304 306 306 307 304 302 303 302 299 299 294 292 290 292 293 292 294 293 293 292 291 292 295 300 302 320 320 322 322
308 308 308 309 309 309 310 311 312 312 311 311 311 307 296 294 303 305 305 303 306 302 299 303 302 297 295 290 295 294 288 290 289 290 291 292 288 288 295 300 301 302 318 320 321
307 308 308 307 308 309 309 311 312 310 310 311 311 301 292 305 304 304 304 302 304 306 302 301 302 297 294 294 291 287 286 281 288 291 292 289 284 291 293 295 298 300 301 319 320
306 307 307 307 308 309 310 312 313 309 309 310 301 296 291 308 300 303 302 299 302 304 304 303 298 291 292 286 281 283 278 281 284 291 290 288 285 291 295 293 295 298 299 306 319
306 307 307 308 309 310 312 312 308 307 305 306 304 290 297 295 300 302 302 304 300 300 297 295 291 285 284 281 275 279 278 281 281 286 288 286 285 291 294 294 294 295 299 299 309
306 307 307 308 309 310 305 296 292 288 295 291 292 293 296 300 303 299 302 300 300 295 286 290 284 280 283 283 285 283 281 280 283 287 284 284 286 288 292 293 293 294 296 298 300
306 306 307 308 309 308 299 293 292 292 287 296 296 296 299 301 294 299 302 293 292 285 288 283 279 286 288 288 285 283 281 281 284 287 287 285 285 289 292 292 294 295 295 298 301
306 306 308 307 308 301 296 296 301 299 287 293 296 296 296 299 294 296 299 294 289 286 285 279 284 289 287 285 284 282 281 281 281 285 287 285 283 287 292 293 295 296 296 298 300
305 305 306 308 296 297 294 301 301 298 273 283 291 295 297 298 292 301 300 294 289 284 286 283 288 287 284 283 285 280 287 286 285 281 275 286 274 286 288 291 292 294 295 296 299
304 304 305 305 294 294 297 301 301 294 265 283 288 298 295 292 292 293 299 293 284 287 285 281 284 284 284 284 287 283 289 288 286 282 283 283 279 282 291 286 288 292 294 296 298
304 304 305 301 297 298 301 299 294 274 265 276 286 286 288 290 290 292 293 294 291 285 283 283 291 286 286 288 287 290 288 285 284 283 275 283 280 282 285 286 287 289 289 293 296
305 302 301 302 294 300 299 290 274 266 276 273 279 284 285 284 285 287 286 285 279 272 272 280 283 287 289 285 288 287 283 272 273 273 274 281 282 282 288 291 290 289 290 292 295
305 303 302 301 300 299 290 276 264 265 268 283 283 284 281 282 281 283 283 280 285 285 275 276 272 283 288 285 283 283 282 276 267 270 276 283 278 282 288 291 294 294 294 294 293
304 295 295 298 300 295 281 266 268 271 280 281 280 273 274 282 279 278 280 283 282 287 277 278 274 285 287 288 286 282 280 284 279 272 275 278 282 287 288 288 291 291 293 292 294
293 291 292 299 297 286 274 273 272 284 285 283 274 277 267 275 274 274 277 285 282 285 287 284 278 282 286 287 287 284 287 277 277 267 266 276 276 278 282 284 288 288 288 290 292
290 284 294 299 291 280 269 268 277 285 286 282 279 277 279 278 276 269 276 284 285 284 287 288 284 279 282 281 281 282 281 283 282 279 274 272 276 281 282 285 286 286 288 288 289
286 275 292 293 276 272 271 270 283 283 286 284 283 282 280 280 279 280 279 281 286 286 279 285 283 275 278 284 286 285 283 284 277 276 278 278 276 285 285 287 288 286 287 288 289
279 280 293 290 269 273 277 271 281 282 283 283 282 284 283 280 275 281 281 285 287 285 282 284 281 272 273 278 282 281 284 285 284 284 278 275 276 287 286 286 287 286 287 288 288
282 276 281 287 278 275 273 269 273 284 282 283 283 284 281 279 281 279 281 284 287 286 291 286 280 278 271 276 279 279 282 283 282 276 277 279 279 284 285 284 287 286 286 287 288
278 274 280 278 280 275 274 277 276 274 282 283 280 281 280 273 277 278 280 281 285 287 285 281 267 277 279 279 279 281 280 280 281 282 279 279 279 283 284 283 285 286 288 289 289
279 280 280 278 278 277 280 272 276 278 281 279 271 282 282 274 278 277 281 280 279 283 282 280 267 271 268 279 278 278 280 280 280 278 278 279 280 284 286 286 285 287 288 289 289
287 288 284 282 278 276 276 278 279 281 281 283 282 281 280 282 284 283 284 284 283 281 277 274 265 268 260 274 275 272 276 279 279 279 278 275 280 284 283 285 285 287 287 289 289
Wind_Speed
5 5 6 6 7 8 10 11 11 11 13 14 15 16 16 17 13 8 12 5 10 18 17 10 8 7 4 4 6 2 4 3 4 4 7 8 10 8 10 4 4 5 3 3 10
5 5 5 5 6 8 9 9 11 11 12 13 16 17 16 15 2 11 8 12 14 16 8 7 8 8 4 4 4 4 4 6 3 5 7 11 6 11 9 9 2 2 5 8 11
4 5 5 6 7 8 9 10 10 11 12 13 15 17 17 8 3 4 11 15 15 13 4 4 3 2 5 4 5 5 3 5 7 8 9 8 10 10 9 7 5 7 7 6 9
5 5 6 7 8 9 9 10 11 12 14 14 16 17 17 2 1 4 12 13 12 9 6 7 7 5 4 4 5 3 2 4 6 9 7 9 7 15 7 11 10 6 13 12 13
4 5 6 7 9 9 10 11 12 12 13 15 14 14 5 7 3 6 13 10 5 6 12 4 10 4 4 4 7 1 5 7 8 8 11 9 7 7 16 15 10 3 9 12 11
3 4 6 7 8 10 12 13 14 13 13 11 11 10 3 7 6 8 8 8 5 5 6 11 4 3 4 3 4 6 6 9 6 10 7 8 11 1 3 10 13 4 11 12 14
2 4 6 8 10 11 12 14 14 12 8 8 8 3 9 4 3 7 6 3 5 3 3 3 4 8 3 5 5 7 6 8 4 4 6 8 14 12 3 9 11 7 8 9 13
2 4 7 8 9 11 13 13 12 8 6 6 6 3 5 1 3 6 6 5 8 4 3 3 4 3 3 4 7 4 3 5 6 11 7 4 21 14 11 11 15 12 8 9 12
1 4 7 9 11 12 13 12 10 6 5 5 3 2 3 4 7 7 5 4 6 5 4 3 4 3 6 4 5 6 5 5 7 10 6 2 17 12 17 12 15 13 8 9 12
1 5 7 10 12 12 12 4 2 6 4 2 2 4 6 5 5 6 4 3 3 6 5 7 6 4 5 6 3 7 9 7 10 4 13 17 23 12 13 11 15 18 14 10 11
1 4 7 10 11 12 3 4 6 6 9 4 0 3 2 7 3 6 4 5 4 6 5 3 5 3 7 4 5 7 8 11 14 12 8 15 21 20 18 19 16 16 16 10 9
1 4 7 9 9 8 4 5 1 1 4 3 2 2 1 1 4 8 7 6 5 4 6 7 0 4 7 6 5 7 12 16 12 6 13 15 19 23 18 17 18 17 17 14 12
0 3 6 7 7 7 4 4 1 3 4 2 1 1 2 4 3 6 5 3 4 4 4 2 3 5 5 6 6 5 8 10 14 16 10 10 12 7 11 10 15 16 14 11 14
1 3 6 7 5 1 3 1 0 4 7 6 2 2 2 2 3 3 4 2 5 4 3 2 4 5 6 4 4 8 4 10 13 8 4 5 9 4 10 13 8 9 8 8 10
2 3 5 4 4 3 2 3 4 4 5 5 4 1 3 4 3 7 4 5 3 3 3 3 6 7 3 2 2 8 11 13 12 11 10 4 4 7 16 14 17 8 3 4 7
4 2 5 3 3 0 2 5 4 9 5 3 4 4 3 5 7 6 6 6 1 2 3 4 4 3 3 6 4 9 9 4 3 4 3 2 5 4 8 11 15 8 10 8 8
6 2 4 2 3 1 3 5 8 6 5 5 2 4 3 4 5 6 3 8 5 7 6 5 3 2 2 5 2 4 5 4 4 4 5 8 1 0 9 14 8 11 10 10 9
7 5 4 2 4 3 3 8 7 4 6 1 2 2 2 2 3 6 3 4 5 3 3 6 8 4 2 1 3 4 3 2 5 3 6 8 9 3 6 1 10 11 7 9 11
9 2 2 1 3 3 6 6 10 8 6 6 4 7 5 2 3 5 5 3 1 2 3 4 6 4 2 2 1 5 2 3 4 1 2 4 3 3 10 10 5 7 13 12 10
4 3 0 1 4 5 7 4 2 3 4 4 5 4 3 3 4 4 1 2 2 3 2 1 6 2 6 1 3 3 5 4 3 5 5 5 3 7 19 16 10 10 7 9 9
4 4 2 3 4 6 5 7 4 1 0 2 5 4 3 3 5 2 4 1 2 3 0 1 3 7 3 4 3 4 4 3 2 1 2 4 3 3 7 8 7 7 8 8 8
4 3 2 3 6 2 4 8 3 3 1 1 3 4 4 4 3 3 3 5 2 1 1 1 2 4 3 5 2 2 2 2 2 4 2 3 6 4 7 6 7 8 8 7 6
4 3 2 3 6 3 0 3 1 4 4 3 2 3 1 4 4 1 4 2 2 3 1 3 2 4 8 6 5 3 4 3 3 2 1 2 6 7 8 7 6 6 7 7 6
5 4 3 2 1 8 7 3 2 0 1 2 3 3 4 2 1 3 2 2 3 2 4 3 1 3 5 4 2 6 7 5 2 1 2 4 8 13 16 10 6 5 6 6 6
2 5 5 7 6 5 4 6 7 5 1 2 4 2 5 3 2 4 1 2 4 5 3 4 2 3 7 10 3 5 10 7 2 2 3 5 6 7 14 12 3 3 5 6 7
7 6 1 3 6 8 6 6 7 5 7 3 6 7 4 5 5 5 3 2 4 4 2 2 2 3 6 4 5 4 6 6 6 6 4 7 5 12 16 7 8 5 5 6 6
3 2 4 7 5 6 6 8 9 10 2 5 7 6 5 4 3 2 2 1 2 2 1 4 3 3 6 6 6 2 4 3 3 2 3 4 6 12 7 11 12 11 4 6 6
Wind_Direction
55 36 34 28 13 4 10 8 5 359 353 348 347 346 348 347 336 31 50 337 333 325 329 314 337 346 41 16 358 58 79 226 263 157 265 7 6 327 312 301 57 351 166 225 128
48 32 31 25 13 3 2 0 353 351 343 342 339 339 341 338 316 52 358 349 336 324 333 348 338 341 38 9 16 80 115 231 236 345 332 329 342 313 308 291 3 10 333 124 127
53 34 17 23 8 3 2 355 345 341 336 341 335 334 334 337 85 339 329 342 341 332 267 271 302 25 58 1 3 352 160 322 327 356 356 336 334 325 297 291 238 205 176 169 151
53 33 16 10 4 354 352 343 339 339 333 335 332 332 332 109 64 311 332 341 346 348 1 30 4 45 55 22 351 19 285 42 314 327 337 318 307 316 269 278 331 271 168 175 172
45 25 2 357 348 346 339 336 333 331 332 332 330 336 5 57 87 308 340 332 344 10 26 58 39 35 44 349 339 100 342 328 326 322 315 294 258 251 285 284 296 257 175 185 185
41 360 345 347 344 339 335 333 330 333 331 330 332 337 65 77 272 336 338 359 359 23 26 46 46 4 64 360 4 309 301 307 305 299 275 278 282 233 322 304 298 206 205 191 187
14 351 343 343 342 337 331 328 324 331 340 341 340 359 71 116 329 323 345 352 2 6 41 35 39 64 357 344 341 292 315 331 285 307 300 325 286 280 229 290 282 245 219 222 191
7 349 342 337 338 332 323 318 323 329 332 359 344 356 81 280 320 1 345 350 353 7 41 7 44 85 66 307 341 330 9 13 308 343 297 322 273 307 319 292 283 276 233 203 224
9 346 341 333 330 325 319 314 310 308 309 320 356 38 60 336 360 330 10 354 317 4 2 13 58 64 11 33 359 3 303 301 310 327 310 335 297 303 314 303 285 273 247 225 210
14 345 337 331 328 326 324 339 317 342 313 257 273 39 21 317 302 321 311 1 9 348 30 35 42 41 18 47 326 309 309 286 285 320 316 296 293 298 297 278 283 275 259 232 218
322 353 336 334 339 331 30 13 19 354 29 70 328 108 318 304 300 337 342 3 16 45 26 358 47 325 281 243 256 271 279 281 287 298 282 281 290 292 287 280 277 269 258 248 226
325 353 342 343 1 38 66 80 105 226 80 358 342 29 278 349 5 356 15 52 38 38 6 18 22 333 287 281 301 296 290 285 288 280 308 285 281 281 261 261 253 247 245 248 245
190 352 344 347 355 36 60 99 58 35 100 20 27 51 340 13 13 350 28 359 57 43 21 148 283 349 29 347 347 280 263 299 291 314 264 281 274 266 285 260 251 231 226 236 227
185 357 352 342 54 147 25 318 348 76 79 304 355 40 23 340 8 28 9 41 29 47 350 263 339 1 351 338 359 317 10 328 301 320 310 42 292 322 305 302 288 215 209 217 225
159 3 2 48 148 67 183 37 61 57 60 282 333 183 337 78 310 6 2 21 75 347 76 261 332 346 344 338 321 263 310 287 287 292 298 304 256 291 348 346 337 311 309 240 275
157 23 350 62 55 141 67 56 47 44 254 343 327 6 86 30 349 340 19 41 87 42 358 281 282 189 249 295 217 278 294 261 234 282 277 216 175 323 350 328 346 342 1 1 5
149 56 88 92 144 59 75 50 47 121 301 295 14 30 58 26 0 30 53 21 42 29 360 328 265 259 204 317 269 336 320 332 351 4 268 346 15 269 340 355 338 332 345 354 3
150 109 30 88 96 84 59 57 90 234 229 246 37 26 77 44 345 354 106 45 20 50 355 18 342 346 2 26 290 312 336 17 299 335 321 357 347 314 9 20 325 343 348 359 8
128 54 58 0 78 75 78 71 197 200 176 145 61 75 328 352 121 61 6 137 15 346 95 351 287 317 210 269 264 320 25 234 263 74 334 291 323 198 355 353 21 353 6 0 1
106 94 122 108 92 57 76 192 199 218 140 101 119 148 161 279 66 61 4 343 338 354 124 19 297 267 294 309 256 240 323 14 360 6 340 315 20 340 341 351 358 349 358 351 354
73 91 249 90 67 51 153 204 205 237 307 140 153 133 169 150 143 169 202 267 336 20 149 320 230 296 10 9 304 344 359 336 243 38 325 324 293 326 298 318 345 354 357 1 3
109 98 266 69 55 87 163 174 219 151 329 239 108 119 156 155 149 146 139 179 290 56 97 122 259 282 265 290 298 254 324 6 2 336 291 277 274 345 338 347 356 358 3 7 16
109 145 335 91 143 176 69 356 231 137 189 182 143 149 158 156 106 146 129 160 137 84 76 316 291 333 345 352 359 2 316 328 261 247 295 327 287 335 344 354 349 17 18 14 21
115 112 334 54 110 135 146 202 114 192 141 116 111 96 106 132 217 176 125 23 77 77 134 74 264 217 206 222 88 294 309 306 260 288 280 237 297 338 342 335 356 20 42 37 28
74 213 178 172 200 158 118 151 141 152 202 77 21 202 151 121 111 168 97 29 67 351 62 89 149 325 278 274 231 264 294 308 276 276 261 311 321 339 328 310 1 355 68 58 39
135 152 113 150 148 117 171 217 149 158 141 210 145 180 158 146 189 180 137 166 200 17 84 49 258 54 302 350 15 274 347 357 35 349 344 316 300 350 325 352 13 9 70 78 70
179 89 107 154 148 113 202 168 186 144 201 193 164 127 147 190 179 174 182 94 133 113 142 104 95 50 277 342 334 57 308 32 115 12 301 7 303 320 339 18 9 343 18 79 69